Retour au catalogue

STARLINK-11386

ActifCommunicationsVLEO
NORAD 62098·PAYLOAD·🇺🇸 United States

Lancé Nov 25, 2024 depuis Cape Canaveral Space Force Station

Loading…

Prochains Passages (prochaines 24 heures)

TLE

FraisSource: CelesTrak SupGP

Époque: Sep 15, 2026, 02:09 UTC

1 62098C 24220L   26258.09006944 -.00044758  00000+0 -34770-3 0  2581
2 62098  43.0003 341.0563 0001525 272.7207 140.3762 15.70856178    11

Suivez STARLINK-11386 en temps réel avec AllMySat

Download on the App Store